• In Belarus
  • List of Countries
  • For 7 days
  • Water Temperature
  • Satellite Maps
  • Weather Map
  • Weather Widgets
  • user-avatar
    Login

    Hourly Weather Spiez

    Today, 20 October, Friday

    Time Temperature Precipitation Wind Pressure Humidity
    00:00 +12°C° 0 mm 2 mps 701 mmHg 76%
    01:00 +10°C° 0 mm 2 mps 701 mmHg 77%
    02:00 +10°C° 0 mm 2 mps 701 mmHg 76%
    03:00 +10°C° 0 mm 2 mps 701 mmHg 74%
    04:00 +11°C° 0 mm 1 mps 702 mmHg 73%
    05:00 +11°C° 0 mm 1 mps 702 mmHg 71%
    06:00 +11°C° 0 mm 1 mps 702 mmHg 69%
    07:00 +12°C° 0 mm 1 mps 702 mmHg 67%
    08:00 +14°C° 0 mm 1 mps 702 mmHg 61%
    09:00 +16°C° 0 mm 1 mps 703 mmHg 55%
    10:00 +19°C° 0 mm 1 mps 703 mmHg 50%
    11:00 +19°C° 0 mm 1 mps 703 mmHg 49%
    12:00 +19°C° 0 mm 2 mps 704 mmHg 49%
    13:00 +19°C° 0 mm 2 mps 704 mmHg 48%
    14:00 +19°C° 0 mm 2 mps 703 mmHg 53%
    15:00 +18°C° 0 mm 2 mps 703 mmHg 57%
    16:00 +19°C° 0 mm 1 mps 703 mmHg 61%
    17:00 +16°C° 0 mm 1 mps 703 mmHg 68%
    18:00 +14°C° 0 mm 1 mps 703 mmHg 74%
    19:00 +12°C° 0 mm 1 mps 703 mmHg 81%
    20:00 +12°C° 0 mm 1 mps 703 mmHg 79%
    21:00 +12°C° 0 mm 1 mps 703 mmHg 77%
    22:00 +12°C° 0 mm 1 mps 703 mmHg 75%
    23:00 +12°C° 0 mm 1 mps 703 mmHg 74%

    Tomorrow, 21 October, Saturday

    Time Temperature Precipitation Wind Pressure Humidity
    00:00 +12°C° 0 mm 1 mps 703 mmHg 73%
    01:00 +12°C° 0 mm 1 mps 703 mmHg 72%
    02:00 +11°C° 0 mm 1 mps 703 mmHg 72%
    03:00 +11°C° 0 mm 1 mps 703 mmHg 72%
    04:00 +11°C° 0 mm 1 mps 703 mmHg 72%
    05:00 +12°C° 0 mm 1 mps 703 mmHg 71%
    06:00 +12°C° 0 mm 1 mps 703 mmHg 70%
    07:00 +12°C° 0 mm 1 mps 703 mmHg 69%
    08:00 +14°C° 0 mm 1 mps 703 mmHg 64%
    09:00 +16°C° 0 mm 2 mps 704 mmHg 59%
    10:00 +18°C° 0 mm 2 mps 704 mmHg 55%
    11:00 +19°C° 0 mm 2 mps 704 mmHg 53%
    12:00 +20°C° 0 mm 2 mps 704 mmHg 52%
    13:00 +20°C° 0 mm 2 mps 703 mmHg 50%
    14:00 +20°C° 0 mm 2 mps 703 mmHg 55%
    15:00 +19°C° 0 mm 2 mps 703 mmHg 61%
    16:00 +19°C° 0 mm 1 mps 703 mmHg 66%
    17:00 +18°C° 0.6 mm 1 mps 703 mmHg 76%
    18:00 +15°C° 0.6 mm 1 mps 703 mmHg 85%
    19:00 +13°C° 0.6 mm 1 mps 703 mmHg 95%
    20:00 +13°C° 1.4 mm 2 mps 703 mmHg 95%
    21:00 +12°C° 1.4 mm 2 mps 704 mmHg 95%
    22:00 +12°C° 1.4 mm 2 mps 704 mmHg 96%
    23:00 +12°C° 0.7 mm 2 mps 704 mmHg 95%

    Day after tomorrow, 22 October, Sunday

    Time Temperature Precipitation Wind Pressure Humidity
    00:00 +12°C° 0.7 mm 2 mps 704 mmHg 95%
    01:00 +10°C° 0.7 mm 2 mps 704 mmHg 95%
    02:00 +10°C° 0.3 mm 2 mps 703 mmHg 95%
    03:00 +10°C° 0.3 mm 2 mps 703 mmHg 95%
    04:00 +9°C° 0.3 mm 2 mps 703 mmHg 95%
    05:00 +9°C° 0.3 mm 2 mps 703 mmHg 95%
    06:00 +9°C° 0.3 mm 2 mps 703 mmHg 95%
    07:00 +8°C° 0.3 mm 2 mps 703 mmHg 95%
    08:00 +8°C° 0.3 mm 2 mps 703 mmHg 92%
    09:00 +9°C° 0.3 mm 3 mps 703 mmHg 90%
    10:00 +9°C° 0.3 mm 3 mps 703 mmHg 87%
    11:00 +9°C° 0.4 mm 3 mps 702 mmHg 86%
    12:00 +9°C° 0.4 mm 3 mps 702 mmHg 85%
    13:00 +9°C° 0.4 mm 3 mps 702 mmHg 83%
    14:00 +9°C° 0.8 mm 3 mps 702 mmHg 86%
    15:00 +8°C° 0.8 mm 3 mps 701 mmHg 88%
    16:00 +7°C° 0.8 mm 3 mps 701 mmHg 90%
    17:00 +7°C° 0.6 mm 3 mps 702 mmHg 91%
    18:00 +5°C° 0.6 mm 3 mps 702 mmHg 92%
    19:00 +5°C° 0.6 mm 3 mps 703 mmHg 93%
    20:00 +4°C° 0.7 mm 3 mps 703 mmHg 93%
    21:00 +4°C° 0.7 mm 3 mps 703 mmHg 93%
    22:00 +4°C° 0.7 mm 3 mps 704 mmHg 93%
    23:00 +4°C° 0.6 mm 3 mps 704 mmHg 93%

    23 October, Monday

    Time Temperature Precipitation Wind Pressure Humidity
    00:00 +4°C° 0.6 mm 3 mps 704 mmHg 93%
    01:00 +4°C° 0.6 mm 3 mps 704 mmHg 93%
    02:00 +4°C° 1.2 mm 3 mps 704 mmHg 93%
    03:00 +4°C° 1.2 mm 3 mps 704 mmHg 93%
    04:00 +4°C° 1.2 mm 3 mps 703 mmHg 94%
    05:00 +4°C° 1.8 mm 3 mps 703 mmHg 94%
    06:00 +4°C° 1.8 mm 3 mps 703 mmHg 94%
    07:00 +4°C° 1.8 mm 3 mps 704 mmHg 95%
    08:00 +5°C° 1.3 mm 3 mps 704 mmHg 94%
    09:00 +5°C° 1.3 mm 3 mps 704 mmHg 94%
    10:00 +7°C° 1.3 mm 3 mps 704 mmHg 93%
    11:00 +7°C° 0.8 mm 3 mps 704 mmHg 93%
    12:00 +8°C° 0.8 mm 3 mps 704 mmHg 92%
    13:00 +8°C° 0.8 mm 3 mps 704 mmHg 92%
    14:00 +8°C° 0.6 mm 2 mps 704 mmHg 92%
    15:00 +8°C° 0.6 mm 2 mps 704 mmHg 93%
    16:00 +8°C° 0.6 mm 2 mps 704 mmHg 93%
    17:00 +8°C° 0.5 mm 2 mps 705 mmHg 94%
    18:00 +7°C° 0.5 mm 2 mps 705 mmHg 94%
    19:00 +7°C° 0.5 mm 2 mps 705 mmHg 95%
    20:00 +7°C° 0.5 mm 2 mps 705 mmHg 94%
    21:00 +7°C° 0.5 mm 2 mps 705 mmHg 94%
    22:00 +7°C° 0.5 mm 2 mps 706 mmHg 94%
    23:00 +7°C° 0.6 mm 2 mps 705 mmHg 94%

    24 October, Tuesday

    Time Temperature Precipitation Wind Pressure Humidity
    00:00 +7°C° 0.6 mm 2 mps 705 mmHg 93%
    01:00 +7°C° 0.6 mm 2 mps 705 mmHg 93%
    02:00 +8°C° 0.4 mm 2 mps 705 mmHg 93%
    03:00 +8°C° 0.4 mm 2 mps 705 mmHg 94%
    04:00 +8°C° 0.4 mm 2 mps 705 mmHg 94%
    05:00 +9°C° 0.8 mm 2 mps 705 mmHg 94%
    06:00 +9°C° 0.8 mm 2 mps 705 mmHg 95%
    07:00 +9°C° 0.8 mm 2 mps 705 mmHg 95%
    08:00 +10°C° 0.4 mm 2 mps 705 mmHg 95%
    09:00 +10°C° 0.4 mm 2 mps 705 mmHg 95%
    10:00 +12°C° 0.4 mm 2 mps 706 mmHg 95%
    11:00 +12°C° 0.2 mm 2 mps 706 mmHg 93%
    12:00 +13°C° 0.2 mm 2 mps 706 mmHg 92%
    13:00 +14°C° 0.2 mm 1 mps 706 mmHg 91%
    14:00 +14°C° 0 mm 1 mps 706 mmHg 91%
    15:00 +14°C° 0 mm 1 mps 706 mmHg 92%
    16:00 +14°C° 0 mm 1 mps 706 mmHg 93%
    17:00 +13°C° 0 mm 1 mps 706 mmHg 94%
    18:00 +12°C° 0 mm 1 mps 706 mmHg 94%
    19:00 +11°C° 0 mm 1 mps 707 mmHg 95%
    20:00 +11°C° 0 mm 1 mps 707 mmHg 94%
    21:00 +10°C° 0 mm 1 mps 707 mmHg 93%
    22:00 +10°C° 0 mm 1 mps 707 mmHg 92%
    23:00 +10°C° 0 mm 1 mps 707 mmHg 91%

    25 October, Wednesday

    Time Temperature Precipitation Wind Pressure Humidity
    00:00 +10°C° 0 mm 1 mps 707 mmHg 89%
    01:00 +9°C° 0 mm 1 mps 707 mmHg 87%
    02:00 +9°C° 0 mm 1 mps 707 mmHg 85%
    03:00 +9°C° 0 mm 1 mps 707 mmHg 83%
    04:00 +9°C° 0 mm 1 mps 707 mmHg 81%
    05:00 +9°C° 0 mm 1 mps 707 mmHg 78%
    06:00 +9°C° 0 mm 1 mps 707 mmHg 76%
    07:00 +9°C° 0 mm 1 mps 707 mmHg 74%
    08:00 +11°C° 0 mm 1 mps 707 mmHg 76%
    09:00 +13°C° 0 mm 1 mps 708 mmHg 78%
    10:00 +14°C° 0 mm 1 mps 708 mmHg 81%
    11:00 +15°C° 0 mm 1 mps 708 mmHg 79%
    12:00 +16°C° 0 mm 1 mps 708 mmHg 78%
    13:00 +18°C° 0 mm 1 mps 708 mmHg 77%
    14:00 +18°C° 0 mm 1 mps 708 mmHg 78%
    15:00 +18°C° 0 mm 1 mps 707 mmHg 80%
    16:00 +16°C° 0 mm 0 mps 707 mmHg 82%
    17:00 +15°C° 0 mm 1 mps 707 mmHg 82%
    18:00 +14°C° 0 mm 1 mps 707 mmHg 82%
    19:00 +12°C° 0 mm 1 mps 708 mmHg 82%
    20:00 +12°C° 0 mm 1 mps 708 mmHg 81%
    21:00 +12°C° 0 mm 1 mps 708 mmHg 79%
    22:00 +11°C° 0 mm 1 mps 708 mmHg 77%
    23:00 +11°C° 0 mm 1 mps 708 mmHg 75%
    Show more